Temperature
19 19 18 18 18 18 18 18 18 18 18 18 18 17 17 17 17 17 17 17 17 17 17 16 16 16 16 16 16 16 16 16 16 16 16 16 16 16 16 16 16 16 16
18 18 18 18 17 17 17 18 17 18 18 18 18 18 18 17 17 17 17 17 17 17 16 16 16 16 16 16 16 16 16 16 16 16 16 16 16 16 16 16 16 16 16
18 18 18 17 17 17 17 17 17 17 18 18 17 17 17 17 17 17 17 17 16 16 16 16 16 16 16 16 16 16 15 16 16 16 16 16 16 16 16 16 16 16 16
18 18 18 18 18 17 17 17 18 17 17 17 17 17 17 17 17 17 17 16 16 16 16 16 16 16 15 15 15 15 15 15 15 15 15 16 16 16 16 16 16 16 16
19 18 18 18 18 18 17 17 17 17 17 17 17 17 17 17 17 17 16 16 16 16 16 16 16 16 15 15 15 15 15 15 15 15 15 15 15 15 15 15 15 15 15
19 18 18 18 17 17 17 17 17 17 17 17 17 17 17 17 17 17 16 16 16 16 16 16 16 15 15 15 15 15 15 15 15 15 15 15 15 15 15 15 15 15 15
19 18 18 18 18 17 17 17 17 17 17 17 17 17 17 17 17 17 17 16 16 16 16 16 15 15 15 15 15 15 15 15 15 15 14 14 14 14 15 15 15 15 15
19 19 19 18 18 18 17 17 17 17 17 17 17 17 17 17 17 17 17 17 16 16 16 16 16 15 15 15 15 15 14 14 14 14 14 14 14 14 14 14 14 14 14
19 19 19 19 18 18 18 18 17 17 17 17 17 17 17 17 17 17 17 17 16 16 16 16 16 15 15 15 15 14 14 14 14 14 14 14 14 14 14 14 14 14 14
19 19 19 19 19 18 18 18 18 18 18 17 17 17 17 17 17 17 17 17 16 16 16 16 15 15 15 15 15 14 14 14 14 14 14 14 14 14 14 13 13 13 13
20 19 19 19 19 19 18 18 18 18 18 18 17 17 17 17 17 17 17 17 16 16 16 16 15 15 15 15 15 14 14 14 14 14 14 14 14 13 13 13 13 13 13
20 20 20 19 19 19 18 18 18 18 18 18 18 17 17 17 17 17 17 16 16 16 16 16 15 15 15 15 15 15 14 14 14 14 14 14 13 13 13 13 13 13 13
21 20 20 19 19 19 19 18 18 18 18 18 18 18 17 17 17 17 17 16 16 16 16 16 16 15 15 15 15 15 14 14 14 14 14 14 14 13 13 13 13 13 13
21 20 20 20 19 19 19 19 19 19 18 18 18 18 18 17 17 17 17 16 16 16 16 16 16 15 15 15 15 15 14 14 14 14 14 14 14 14 14 13 13 13 13
20 20 20 20 20 20 19 19 19 19 18 18 18 18 18 17 17 17 17 17 16 16 16 16 16 16 15 15 15 15 15 14 14 14 14 14 14 14 14 13 13 13 13
20 20 20 20 20 20 20 20 20 19 19 19 18 18 18 18 17 17 17 17 16 16 16 16 16 16 16 15 15 15 15 15 15 14 14 14 14 14 14 14 13 13 13
21 21 21 21 20 20 20 20 20 20 19 19 19 18 18 18 18 17 17 17 16 16 16 16 16 16 16 15 15 15 15 14 14 14 14 14 14 14 14 14 13 13 13
20 21 21 21 21 21 20 20 20 20 19 19 19 18 18 18 18 17 17 17 17 16 16 16 16 16 16 15 15 15 14 14 14 14 14 14 14 14 14 14 13 13 13
20 21 21 21 21 21 21 20 20 20 19 19 19 18 18 18 18 17 17 17 17 16 16 16 16 15 15 15 15 15 14 14 14 14 14 14 14 14 14 13 13 13 13
20 20 20 20 20 20 20 20 20 19 19 19 19 19 18 18 18 17 17 17 16 16 16 16 16 15 15 15 15 14 14 14 14 14 14 14 14 14 13 13 13 13 13
19 19 19 19 19 19 20 19 19 19 19 19 18 18 18 18 17 17 17 17 16 16 15 15 15 15 15 15 15 14 14 14 14 14 14 14 14 13 13 13 13 13 12
18 18 18 18 18 19 19 18 18 18 18 18 18 18 17 17 17 17 16 16 16 16 15 15 15 15 15 14 14 14 14 14 14 14 14 14 13 13 13 12 12 12 12
17 17 17 17 17 17 18 17 17 17 17 17 17 17 17 16 16 16 16 16 15 15 15 14 14 15 14 14 14 14 14 13 13 13 13 13 13 12 12 12 12 12 11
16 16 16 16 16 16 16 16 16 16 16 16 16 16 16 16 15 15 15 15 15 14 14 14 14 14 14 14 14 13 13 13 13 13 12 12 12 12 12 12 12 11 11
16 16 16 15 15 15 15 15 15 15 15 15 15 15 15 15 15 15 14 14 14 14 14 14 14 14 13 13 13 13 13 12 12 12 12 12 12 11 11 11 11 11 11
15 15 15 14 14 14 14 14 14 15 14 14 14 14 14 14 14 14 13 13 13 13 13 13 13 13 13 12 12 12 12 12 12 11 11 11 11 11 11 11 11 11 11
Wind_Speed
6 6 8 10 12 12 12 12 13 12 10 8 8 7 6 5 4 5 9 11 10 10 8 5 5 5 4 4 3 2 2 2 1 3 3 4 3 1 0 1 2 2 4
7 7 8 9 12 13 12 12 11 11 10 8 7 6 6 4 4 4 6 10 10 10 8 6 5 5 4 4 3 3 2 1 2 3 3 3 4 4 2 1 1 1 2
12 10 9 8 11 13 13 14 12 11 10 9 7 7 5 4 3 4 3 5 9 9 9 8 6 5 4 4 4 3 4 2 2 2 4 3 2 2 4 3 1 1 1
12 11 10 10 10 11 12 11 12 11 10 10 10 11 8 6 5 5 4 4 8 9 10 9 7 5 4 5 4 4 3 3 1 2 2 2 4 3 1 3 3 2 1
13 13 13 12 11 11 11 11 11 10 9 9 10 10 8 5 5 5 6 5 4 7 9 9 7 6 4 5 5 4 4 3 3 2 1 2 3 2 3 0 4 4 3
12 12 11 10 9 10 10 11 11 10 9 10 10 10 10 9 9 7 7 5 3 3 6 8 7 6 5 5 4 5 5 4 3 3 2 3 2 2 3 2 1 2 3
13 12 12 11 11 11 12 11 12 10 10 10 10 10 10 11 11 9 8 6 4 3 5 5 5 5 5 5 5 5 5 4 4 3 2 2 2 3 3 3 1 1 3
13 14 14 14 13 13 13 13 12 10 10 10 10 9 10 9 8 8 7 7 6 5 6 6 6 6 6 6 5 4 4 4 4 3 3 2 1 2 3 3 3 1 3
14 15 14 14 14 15 14 14 14 11 10 10 9 9 9 9 9 9 8 6 6 6 7 7 7 6 6 6 6 4 4 4 4 3 3 2 1 1 2 3 4 4 1
13 14 14 14 14 14 14 13 13 12 10 10 10 10 9 9 9 9 9 8 8 7 8 8 7 7 6 6 5 4 4 5 4 3 3 2 2 1 1 2 2 3 4
15 14 14 14 14 14 14 14 13 11 10 11 9 9 9 9 9 9 9 9 8 9 10 9 8 8 7 6 6 5 5 6 5 4 4 4 3 2 2 1 2 2 3
14 15 15 14 14 15 15 15 14 13 12 11 10 10 9 9 9 9 9 9 9 9 10 9 9 8 8 7 7 7 6 7 6 6 5 5 4 4 3 3 3 2 3
12 13 14 14 16 16 16 16 15 14 12 11 11 10 10 10 10 10 9 9 10 9 9 9 9 8 8 8 8 7 7 7 7 7 7 7 6 5 4 4 4 3 3
11 13 13 14 16 16 17 16 15 15 14 12 12 12 12 12 11 10 10 10 10 10 9 9 9 9 8 8 8 8 7 7 7 7 8 8 7 7 7 6 6 5 4
10 13 13 13 14 15 15 16 15 15 15 14 13 13 12 11 10 10 10 9 10 10 9 8 8 8 8 9 9 8 9 8 7 7 7 8 9 11 9 6 6 6 4
10 12 14 14 15 16 16 16 16 16 15 15 14 13 11 11 11 11 11 10 9 9 9 9 9 9 9 12 14 11 8 8 8 8 8 8 9 11 13 13 12 10 8
7 10 13 14 15 16 16 16 16 14 14 14 14 13 13 12 12 13 11 12 11 10 10 10 10 10 11 14 14 15 10 8 8 9 8 8 8 9 8 10 13 13 15
6 9 10 12 12 12 13 14 13 14 14 14 13 13 13 13 12 11 12 12 10 10 10 10 10 9 11 15 15 15 10 8 9 9 9 9 9 8 8 8 8 9 10
5 5 7 8 9 9 11 11 11 11 12 12 12 13 13 13 12 12 11 9 8 8 8 8 9 10 10 13 14 12 6 7 9 9 9 9 9 12 12 8 9 10 10
3 4 5 6 6 7 9 11 11 11 11 11 11 10 11 11 11 11 10 7 8 9 9 8 9 9 9 10 12 12 6 7 8 7 8 11 12 12 11 8 8 11 12
5 7 8 7 4 5 8 9 8 8 8 8 7 7 8 10 10 9 8 7 8 8 8 8 7 8 9 10 12 13 8 8 8 7 7 7 11 12 12 10 10 14 12
9 9 9 8 6 5 8 8 5 4 4 5 6 6 6 7 6 7 7 7 7 7 7 6 6 5 6 8 10 13 14 10 7 7 6 6 9 11 11 10 12 15 11
9 9 10 9 8 7 7 7 3 4 6 6 5 4 4 4 4 5 5 4 4 5 5 5 5 4 4 4 8 10 13 12 8 7 9 10 11 10 9 12 14 11 7
8 9 11 11 9 7 7 6 4 5 7 6 5 4 4 3 3 3 3 4 4 4 4 5 5 4 3 4 3 4 6 8 8 8 8 10 11 9 10 10 9 7 7
8 9 10 10 9 8 8 8 7 7 7 5 4 4 3 3 2 2 2 3 4 5 6 6 5 5 5 6 6 5 4 5 6 4 3 4 4 5 6 7 7 7 6
8 9 10 10 9 8 8 7 7 7 6 6 5 3 3 2 2 2 2 2 1 2 4 4 4 4 4 3 3 4 5 5 5 4 4 6 7 8 8 7 7 7 7
Wind_Direction
173 162 160 163 160 161 158 160 159 156 150 148 148 148 151 152 151 157 154 149 152 153 148 141 136 134 134 143 134 109 71 37 52 60 17 356 2 10 228 160 139 135 148
151 155 153 149 154 159 158 157 163 159 159 156 153 151 147 151 151 147 147 152 152 151 149 140 136 134 127 117 106 99 91 26 61 106 84 23 357 349 359 17 139 137 134
161 158 155 152 149 154 161 164 164 163 161 153 138 134 119 112 120 137 146 156 153 148 147 142 134 130 128 132 128 118 117 95 23 91 134 132 206 307 337 348 6 41 96
161 158 158 160 159 159 161 161 162 159 158 154 152 155 156 158 168 162 154 152 146 142 144 142 134 131 129 136 140 123 125 124 91 29 57 136 154 140 348 336 342 349 18
166 166 169 170 167 163 160 161 160 159 160 159 161 160 158 156 148 144 145 146 140 141 144 143 135 134 134 139 134 125 125 126 134 120 85 68 64 88 129 273 323 337 323
171 168 167 163 161 161 160 163 163 165 166 164 164 162 160 155 152 157 160 157 147 141 144 141 139 143 143 148 148 141 137 132 122 116 113 124 119 130 130 155 266 303 306
172 172 169 169 169 168 169 169 167 168 170 168 168 169 166 162 166 168 169 163 160 165 170 152 149 151 154 155 149 145 145 142 133 135 130 132 150 157 144 136 160 315 311
176 179 179 175 176 176 173 171 171 172 173 171 172 169 162 164 170 172 169 174 179 179 170 158 157 160 161 157 147 146 156 147 144 143 141 134 140 141 148 152 143 75 339
181 182 181 179 178 177 177 175 174 176 176 172 168 166 163 163 169 171 169 175 178 176 168 163 161 163 159 155 145 149 163 155 157 155 150 146 156 132 139 142 147 146 163
179 181 183 183 181 178 177 176 177 179 176 172 173 174 170 170 170 168 173 177 178 171 166 167 165 167 167 163 157 159 171 167 178 174 164 172 179 152 137 139 141 147 161
184 183 184 183 180 175 176 178 180 178 178 177 176 171 174 171 167 172 178 177 175 170 171 173 172 175 177 175 171 178 177 181 193 193 189 204 195 187 190 162 152 160 158
186 184 182 179 178 178 179 181 182 183 184 180 178 177 176 172 171 177 178 174 172 173 173 173 176 183 186 183 183 192 188 191 201 207 201 214 206 204 207 194 199 201 189
183 180 178 179 182 182 183 184 185 187 186 181 180 180 180 179 180 181 177 173 171 172 174 174 182 189 190 190 195 196 197 200 206 207 205 212 202 214 216 212 215 222 212
182 180 183 184 185 186 185 185 187 187 186 184 184 186 188 187 185 181 178 177 176 177 181 184 187 191 193 195 199 199 205 209 213 212 209 209 203 209 212 215 218 218 220
183 185 187 188 186 186 187 186 188 187 187 186 189 192 191 186 182 181 182 181 183 187 186 187 194 198 198 205 203 203 207 210 218 223 220 218 214 212 209 211 211 208 215
188 189 189 189 188 189 189 187 187 187 184 187 192 191 187 186 189 189 188 186 190 190 188 195 200 206 214 215 209 203 209 211 215 224 229 231 228 229 226 224 215 203 206
195 188 190 194 193 192 189 189 189 183 183 189 192 191 189 191 196 196 191 194 196 194 196 202 205 212 219 217 214 212 207 211 217 221 226 237 235 228 231 237 236 229 224
200 197 195 195 196 192 190 186 181 180 184 188 191 192 193 197 198 194 195 199 199 200 202 207 208 213 222 218 217 216 211 217 223 223 221 227 238 236 227 234 243 244 242
186 186 185 182 182 182 179 169 172 177 182 188 191 191 192 194 194 197 199 199 196 201 205 206 209 216 227 221 220 215 212 224 232 233 230 227 235 243 236 232 244 256 260
121 133 137 134 151 167 157 156 168 170 180 186 186 185 185 186 191 195 196 195 198 206 207 210 211 214 226 226 218 208 212 229 240 244 243 237 237 244 241 232 238 252 259
70 98 105 108 126 140 135 145 158 179 191 180 171 172 178 186 191 192 193 195 198 202 207 214 217 217 224 227 218 207 209 224 235 243 247 244 243 246 247 239 237 245 252
62 78 88 84 76 100 124 129 150 176 152 143 153 170 181 188 189 184 191 192 192 198 205 213 222 227 228 226 223 215 214 217 224 238 243 246 250 253 256 249 245 250 253
68 73 85 84 74 77 102 115 132 122 114 118 132 144 143 147 148 162 176 177 183 194 203 208 220 228 222 218 214 212 216 220 225 242 245 252 260 265 263 256 254 255 246
73 74 80 80 71 67 74 82 80 97 106 113 117 120 121 123 130 145 156 166 181 195 203 208 218 227 228 230 221 218 222 227 235 250 259 263 266 261 256 261 261 246 237
76 77 82 79 71 66 65 61 62 74 81 83 86 93 106 123 130 136 158 179 206 204 203 212 208 207 228 237 223 218 222 221 227 229 247 255 261 264 263 262 261 256 250
78 78 77 77 72 70 66 58 61 74 79 75 68 69 75 87 97 96 57 7 278 251 219 216 210 215 216 221 220 237 253 249 225 198 240 249 252 255 259 261 265 260 255
Height
1489 1490 1490 1491 1494 1498 1503 1509 1514 1518 1523 1526 1530 1534 1537 1541 1544 1546 1548 1549 1551 1553 1555 1556 1558 1559 1560 1562 1563 1564 1565 1566 1566 1567 1568 1569 1570 1570 1571 1572 1572 1573 1573
1487 1488 1489 1489 1491 1496 1501 1507 1512 1516 1521 1525 1529 1533 1536 1540 1543 1545 1547 1548 1550 1552 1553 1555 1556 1558 1559 1561 1562 1563 1564 1565 1565 1566 1567 1568 1570 1570 1571 1571 1572 1572 1572
1485 1487 1488 1489 1491 1495 1500 1506 1511 1514 1520 1524 1528 1532 1536 1539 1541 1543 1545 1547 1549 1550 1552 1554 1555 1556 1558 1559 1561 1562 1563 1564 1564 1565 1567 1567 1568 1569 1570 1570 1571 1571 1571
1485 1487 1489 1490 1493 1496 1500 1505 1510 1513 1518 1523 1527 1530 1533 1536 1539 1541 1544 1546 1548 1549 1551 1552 1554 1555 1557 1558 1559 1560 1561 1562 1563 1564 1565 1566 1567 1568 1569 1570 1570 1570 1570
1484 1486 1489 1491 1494 1497 1501 1504 1509 1513 1517 1522 1526 1529 1532 1535 1538 1541 1543 1545 1547 1548 1550 1551 1553 1554 1555 1556 1557 1559 1560 1561 1562 1563 1564 1565 1565 1566 1567 1568 1568 1569 1569
1484 1487 1489 1492 1495 1497 1501 1505 1509 1513 1517 1521 1524 1527 1531 1534 1536 1539 1541 1544 1546 1547 1549 1550 1551 1553 1554 1555 1556 1557 1558 1559 1561 1561 1562 1563 1564 1565 1565 1566 1567 1567 1567
1483 1486 1489 1491 1494 1497 1501 1504 1508 1512 1516 1519 1522 1526 1529 1532 1535 1537 1540 1542 1544 1545 1547 1549 1550 1551 1552 1553 1554 1555 1557 1558 1559 1560 1561 1562 1563 1563 1564 1565 1565 1565 1566
1481 1484 1487 1490 1493 1497 1500 1503 1507 1511 1515 1518 1521 1525 1528 1531 1534 1536 1538 1540 1542 1544 1546 1547 1549 1550 1551 1552 1553 1554 1555 1557 1558 1559 1560 1561 1561 1562 1562 1563 1563 1563 1564
1479 1482 1486 1489 1492 1495 1498 1502 1506 1510 1514 1517 1520 1524 1526 1529 1532 1534 1537 1539 1541 1543 1545 1546 1548 1549 1550 1551 1552 1553 1554 1555 1556 1557 1558 1559 1560 1560 1561 1561 1562 1563 1562
1477 1480 1483 1487 1490 1493 1497 1501 1505 1508 1512 1515 1518 1521 1524 1527 1530 1533 1535 1537 1539 1541 1543 1545 1546 1548 1549 1550 1551 1552 1553 1554 1555 1556 1556 1557 1558 1559 1559 1559 1560 1560 1560
1474 1477 1481 1485 1488 1492 1496 1499 1503 1507 1510 1513 1516 1519 1522 1525 1528 1531 1533 1535 1537 1539 1541 1543 1545 1546 1547 1548 1549 1550 1551 1552 1553 1554 1554 1555 1556 1556 1557 1557 1557 1558 1558
1471 1474 1478 1482 1487 1490 1493 1497 1501 1504 1508 1511 1514 1517 1520 1523 1526 1528 1531 1533 1535 1537 1539 1541 1542 1544 1545 1546 1547 1548 1549 1550 1551 1552 1552 1553 1553 1554 1554 1555 1555 1555 1555
1469 1472 1476 1479 1483 1487 1491 1494 1498 1502 1505 1508 1511 1514 1517 1520 1523 1525 1528 1530 1532 1534 1536 1538 1539 1541 1542 1544 1545 1546 1547 1548 1548 1549 1550 1550 1551 1551 1552 1552 1552 1552 1552
1466 1469 1473 1476 1480 1484 1487 1491 1494 1499 1502 1506 1509 1511 1514 1517 1520 1523 1525 1528 1529 1531 1533 1535 1536 1538 1539 1541 1542 1543 1544 1545 1546 1546 1547 1547 1547 1548 1548 1548 1548 1549 1548
1463 1466 1469 1473 1476 1480 1483 1487 1491 1495 1499 1502 1505 1508 1511 1514 1517 1520 1522 1524 1526 1528 1530 1532 1533 1535 1536 1537 1538 1540 1541 1541 1542 1543 1544 1544 1544 1544 1545 1545 1545 1545 1544
1459 1463 1466 1469 1472 1476 1479 1483 1486 1490 1494 1497 1500 1504 1507 1510 1513 1516 1518 1521 1523 1525 1526 1528 1529 1531 1532 1534 1535 1536 1537 1538 1539 1539 1540 1540 1540 1540 1540 1540 1540 1540 1540
1456 1459 1461 1464 1467 1470 1474 1478 1482 1486 1490 1493 1497 1500 1503 1506 1509 1511 1514 1516 1518 1520 1522 1523 1525 1526 1528 1530 1531 1532 1533 1534 1534 1535 1535 1535 1535 1536 1536 1536 1536 1535 1535
1454 1456 1458 1461 1464 1467 1471 1475 1479 1482 1486 1489 1493 1496 1499 1501 1504 1507 1509 1511 1513 1515 1517 1518 1520 1522 1523 1525 1526 1528 1528 1528 1529 1530 1530 1530 1530 1530 1531 1530 1530 1529 1529
1453 1453 1455 1457 1461 1464 1468 1472 1475 1479 1482 1485 1488 1491 1494 1497 1498 1501 1503 1506 1508 1510 1511 1513 1515 1517 1518 1520 1521 1523 1523 1523 1523 1524 1525 1525 1525 1525 1525 1524 1523 1523 1522
1450 1451 1453 1455 1458 1461 1465 1468 1471 1475 1477 1480 1483 1487 1490 1492 1494 1496 1499 1501 1503 1505 1507 1508 1510 1511 1513 1515 1516 1517 1517 1517 1518 1518 1519 1519 1519 1519 1518 1517 1516 1515 1515
1450 1451 1452 1454 1457 1460 1463 1466 1469 1471 1474 1478 1481 1484 1486 1488 1490 1492 1494 1496 1498 1500 1501 1502 1504 1505 1507 1509 1510 1510 1510 1511 1511 1511 1512 1512 1512 1512 1511 1510 1509 1508 1508
1451 1451 1452 1454 1456 1459 1461 1464 1466 1469 1473 1475 1478 1481 1483 1485 1486 1488 1490 1492 1493 1494 1495 1497 1498 1499 1500 1502 1503 1504 1504 1505 1505 1505 1505 1505 1505 1505 1504 1503 1503 1502 1501
1454 1454 1454 1456 1458 1460 1462 1464 1467 1469 1471 1473 1475 1478 1480 1482 1483 1484 1486 1488 1489 1490 1491 1492 1492 1493 1494 1495 1497 1498 1498 1498 1499 1499 1499 1499 1498 1498 1497 1496 1495 1494 1493
1457 1457 1457 1458 1460 1462 1464 1465 1467 1469 1470 1472 1474 1476 1478 1478 1480 1481 1483 1484 1485 1486 1486 1487 1488 1489 1489 1490 1491 1492 1492 1492 1492 1492 1492 1492 1492 1491 1489 1489 1487 1486 1485
1459 1460 1460 1461 1462 1464 1466 1468 1469 1469 1470 1472 1473 1474 1475 1477 1478 1479 1480 1481 1482 1483 1483 1483 1484 1484 1485 1485 1486 1486 1487 1487 1487 1486 1486 1485 1484 1483 1482 1480 1479 1478 1476
1463 1463 1464 1464 1466 1467 1468 1470 1471 1471 1472 1472 1473 1474 1475 1476 1477 1477 1478 1478 1480 1480 1480 1480 1480 1480 1480 1481 1481 1481 1481 1481 1481 1480 1479 1478 1477 1475 1474 1473 1471 1470 1469